Location: Altenhof
(50.2418°N, 10.8789°E)
Time: 09:48:42
(UTC+00:00)

NOSS 2-1 (C) - Pass Details

Date: 18 February 2020
Orbit: 450 x 1753 km, 63.3° (Epoch: 28 March)

Event Time Altitude Azimuth Distance (km) Brightness Sun altitude
Exits shadow 05:15:24 17° 288° (WNW) 1,270 4.6 -11.5°
Maximum altitude 05:17:15 26° 332° (NNW) 1,030 4.4 -11.2°
Drops below altitude 10° 05:20:42 10° 31° (NNE) 1,888 6.4 -10.6°
Sets 05:23:31 0° 44° (NE) 2,970 7.6 -10.2°
